,,,PA_Meas_PMT16A,,PR_Meas_QMR101_102,,RH_Meas_QMH101,,SR_Meas_QMS101,,TA_Meas_QMH101,,GenWind,,GenWind,
date,time,status,PA,status,PR,status,RH,status,SR,status,TA,status,DirAvg,status,SpdAvg,
2012-09-13, 00:00:05,VALID,1001.45,VALID,0,VALID,93.4094,VALID,0,VALID,22.9793,VALID,65,VALID,0.285937,
2012-09-13, 00:01:05,VALID,1001.42,VALID,0,VALID,93.4323,VALID,0,VALID,23.0006,VALID,65,VALID,0.0367187,
2012-09-13, 00:02:05,VALID,1001.45,VALID,0,VALID,93.5315,VALID,0,VALID,23.0006,VALID,65,VALID,0.398828,
2012-09-13, 00:03:05,VALID,1001.37,VALID,0,VALID,93.5697,VALID,0,VALID,23.0396,VALID,65,VALID,0.178516,
2012-09-13, 00:04:05,VALID,1001.33,VALID,0,VALID,93.5391,VALID,0,VALID,23.0591,VALID,65,VALID,0.430469,
2012-09-13, 00:05:05,VALID,1001.33,VALID,0,VALID,93.356,VALID,0,VALID,23.0769,VALID,65,VALID,0.284766,
2012-09-13, 00:06:05,VALID,1001.31,VALID,0,VALID,93.2111,VALID,0,VALID,23.0981,VALID,65,VALID,0.194922,
2012-09-13, 00:07:05,VALID,1001.29,VALID,0,VALID,93.1577,VALID,0.104696,VALID,23.1159,VALID,65,VALID,0.212109,
2012-09-13, 00:08:05,VALID,1001.27,VALID,0,VALID,93.1195,VALID,0,VALID,23.1141,VALID,65,VALID,0.335938,
2012-09-13, 00:09:05,VALID,1001.25,VALID,0,VALID,92.9898,VALID,0,VALID,23.1336,VALID,65,VALID,0.532422,
2012-09-13, 00:10:05,VALID,1001.3,VALID,0,VALID,92.8525,VALID,0,VALID,23.1336,VALID,65,VALID,0.791406,
2012-09-13, 00:11:05,VALID,1001.28,VALID,0,VALID,92.738,VALID,0,VALID,23.1549,VALID,65,VALID,0.221875,
2012-09-13, 00:12:05,VALID,1001.27,VALID,0,VALID,92.7304,VALID,0,VALID,23.1744,VALID,65,VALID,0.316016,
2012-09-13, 00:13:05,VALID,1001.26,VALID,0,VALID,92.6846,VALID,0,VALID,23.1726,VALID,65,VALID,0.096875,
2012-09-13, 00:14:05,VALID,1001.23,VALID,0,VALID,92.6541,VALID,0.104696,VALID,23.1939,VALID,65,VALID,0.413281,
2012-09-13, 00:15:05,VALID,1001.24,VALID,0,VALID,92.5702,VALID,0,VALID,23.1939,VALID,65,VALID,0.524219,
2012-09-13, 00:16:05,VALID,1001.25,VALID,0,VALID,92.4557,VALID,0,VALID,23.1744,VALID,65,VALID,0.421094,
2012-09-13, 00:17:05,VALID,1001.24,VALID,0,VALID,92.5626,VALID,0,VALID,23.1939,VALID,84,VALID,0.698438,
2012-09-13, 00:18:05,VALID,1001.18,VALID,0,VALID,92.6846,VALID,0,VALID,23.2312,VALID,93,VALID,0.598437,
2012-09-13, 00:19:05,VALID,1001.15,VALID,0,VALID,92.5702,VALID,0,VALID,23.2915,VALID,93,VALID,0.263281,
2012-09-13, 00:20:05,VALID,1001.14,VALID,0,VALID,92.3642,VALID,0,VALID,23.3092,VALID,93,VALID,0.162109,
2012-09-13, 00:21:05,VALID,1001.13,VALID,0,VALID,91.9445,VALID,0,VALID,23.311,VALID,93,VALID,0.0410156,
2012-09-13, 00:22:05,VALID,1001.1,VALID,0,VALID,91.7462,VALID,0.104696,VALID,23.2719,VALID,93,VALID,0.182031,
2012-09-13, 00:23:05,VALID,1001.09,VALID,0,VALID,91.7385,VALID,0.104696,VALID,23.2312,VALID,93,VALID,0.296484,
2012-09-13, 00:24:05,VALID,1001.09,VALID,0,VALID,91.8911,VALID,0.104696,VALID,23.2117,VALID,93,VALID,0.491016,
2012-09-13, 00:25:05,VALID,1001.05,VALID,0,VALID,91.8148,VALID,0.104696,VALID,23.1744,VALID,93,VALID,0.244141,
2012-09-13, 00:26:05,VALID,1001.04,VALID,0,VALID,91.9369,VALID,0.104696,VALID,23.1159,VALID,93,VALID,0.490625,
2012-09-13, 00:27:05,VALID,1001.03,VALID,0,VALID,92.1506,VALID,0,VALID,23.0964,VALID,93,VALID,0.015625,
2012-09-13, 00:28:05,VALID,1001.02,VALID,0,VALID,92.4863,VALID,0,VALID,23.0946,VALID,93,VALID,0.230078,
2012-09-13, 00:29:05,VALID,1001.03,VALID,0,VALID,92.5702,VALID,0,VALID,23.1159,VALID,93,VALID,0.203906,
2012-09-13, 00:30:05,VALID,1001.01,VALID,0,VALID,92.5702,VALID,0,VALID,23.1159,VALID,93,VALID,0.231641,
2012-09-13, 00:31:04,VALID,1001.01,VALID,0,VALID,92.6007,VALID,0.104696,VALID,23.0751,VALID,93,VALID,0,
2012-09-13, 00:32:04,VALID,1001.02,VALID,0,VALID,92.532,VALID,0.104696,VALID,23.0573,VALID,93,VALID,0.0789063,
2012-09-13, 00:33:04,VALID,1000.97,VALID,0,VALID,92.616,VALID,0.104696,VALID,23.0361,VALID,93,VALID,0.0808594,
2012-09-13, 00:34:04,VALID,1000.99,VALID,0,VALID,92.6541,VALID,0,VALID,22.9971,VALID,93,VALID,0,
2012-09-13, 00:35:04,VALID,1000.98,VALID,0,VALID,92.7609,VALID,0,VALID,22.9988,VALID,93,VALID,0.209375,
2012-09-13, 00:36:04,VALID,1000.93,VALID,0,VALID,92.9364,VALID,0.104696,VALID,22.9971,VALID,104,VALID,0.233984,
2012-09-13, 00:37:04,VALID,1000.91,VALID,0,VALID,93.1882,VALID,0,VALID,23.0591,VALID,147,VALID,1.04922,
2012-09-13, 00:38:04,VALID,1000.88,VALID,0,VALID,93.1805,VALID,0,VALID,23.2134,VALID,149,VALID,0.894531,
2012-09-13, 00:39:04,VALID,1000.86,VALID,0,VALID,92.3794,VALID,0,VALID,23.3305,VALID,145,VALID,0.459766,
2012-09-13, 00:40:04,VALID,1000.86,VALID,0,VALID,91.2045,VALID,0,VALID,23.4085,VALID,136,VALID,1.4043,
2012-09-13, 00:41:04,VALID,1000.87,VALID,0,VALID,89.9151,VALID,0,VALID,23.5256,VALID,113,VALID,0.666406,
2012-09-13, 00:42:04,VALID,1000.84,VALID,0,VALID,89.1979,VALID,0,VALID,23.5451,VALID,98,VALID,0.700391,
2012-09-13, 00:43:04,VALID,1000.86,VALID,0,VALID,89.5183,VALID,0,VALID,23.5256,VALID,98,VALID,0.744922,
2012-09-13, 00:44:04,VALID,1000.87,VALID,0,VALID,89.7472,VALID,0,VALID,23.4671,VALID,98,VALID,0.893359,
2012-09-13, 00:45:04,VALID,1000.84,VALID,0,VALID,90.1287,VALID,0,VALID,23.389,VALID,97,VALID,1.32344,
2012-09-13, 00:46:04,VALID,1000.83,VALID,0,VALID,90.7009,VALID,0,VALID,23.311,VALID,86,VALID,1.15234,
2012-09-13, 00:47:04,VALID,1000.85,VALID,0,VALID,91.0824,VALID,0,VALID,23.2329,VALID,99,VALID,0.847656,
2012-09-13, 00:48:04,VALID,1000.76,VALID,0,VALID,91.5554,VALID,0,VALID,23.2152,VALID,99,VALID,1.15469,
2012-09-13, 00:49:04,VALID,1000.74,VALID,0,VALID,91.6546,VALID,0,VALID,23.1744,VALID,99,VALID,1.17891,
2012-09-13, 00:50:04,VALID,1000.73,VALID,0,VALID,91.3037,VALID,0,VALID,23.2347,VALID,110,VALID,1.08047,
2012-09-13, 00:51:04,VALID,1000.72,VALID,0,VALID,90.823,VALID,0,VALID,23.2719,VALID,116,VALID,1.04805,
2012-09-13, 00:52:04,VALID,1000.69,VALID,0,VALID,90.266,VALID,0,VALID,23.3695,VALID,149,VALID,1.15703,
2012-09-13, 00:53:04,VALID,1000.66,VALID,0,VALID,89.0148,VALID,0,VALID,23.5451,VALID,142,VALID,0.975781,
2012-09-13, 00:54:04,VALID,1000.68,VALID,0,VALID,87.733,VALID,0,VALID,23.6622,VALID,110,VALID,1.17266,
2012-09-13, 00:55:04,VALID,1000.69,VALID,0,VALID,87.1074,VALID,0,VALID,23.7597,VALID,123,VALID,1.46445,
2012-09-13, 00:56:04,VALID,1000.7,VALID,0,VALID,86.7183,VALID,0,VALID,23.8183,VALID,131,VALID,1.60117,
2012-09-13, 00:57:04,VALID,1000.63,VALID,0,VALID,86.352,VALID,0,VALID,23.8786,VALID,126,VALID,1.44648,
2012-09-13, 00:58:04,VALID,1000.64,VALID,0,VALID,85.9782,VALID,0,VALID,23.9372,VALID,136,VALID,1.4,
2012-09-13, 00:59:04,VALID,1000.61,VALID,0,VALID,85.6349,VALID,0,VALID,24.0348,VALID,148,VALID,1.53437,
2012-09-13, 01:00:04,VALID,1000.62,VALID,0,VALID,85.2686,VALID,0,VALID,24.0933,VALID,145,VALID,1.37422,
2012-09-13, 01:01:04,VALID,1000.61,VALID,0,VALID,85.0092,VALID,0,VALID,24.1324,VALID,138,VALID,1.1793,
2012-09-13, 01:02:04,VALID,1000.6,VALID,0,VALID,84.7422,VALID,0,VALID,24.1519,VALID,123,VALID,1.20625,
2012-09-13, 01:03:04,VALID,1000.59,VALID,0,VALID,84.8032,VALID,0,VALID,24.1519,VALID,133,VALID,1.35352,
2012-09-13, 01:04:04,VALID,1000.64,VALID,0,VALID,84.8872,VALID,0,VALID,24.1305,VALID,143,VALID,0.935156,
2012-09-13, 01:05:04,VALID,1000.63,VALID,0,VALID,84.91,VALID,0,VALID,24.1305,VALID,143,VALID,0.273828,
2012-09-13, 01:06:04,VALID,1000.62,VALID,0,VALID,84.9482,VALID,0,VALID,24.111,VALID,143,VALID,0.751562,
2012-09-13, 01:07:04,VALID,1000.63,VALID,0,VALID,84.9406,VALID,0,VALID,24.1324,VALID,151,VALID,0.799219,
2012-09-13, 01:08:04,VALID,1000.63,VALID,0,VALID,85.0703,VALID,0,VALID,24.111,VALID,151,VALID,0.296484,
2012-09-13, 01:09:04,VALID,1000.66,VALID,0,VALID,84.7727,VALID,0,VALID,24.111,VALID,151,VALID,0.165625,
2012-09-13, 01:10:04,VALID,1000.66,VALID,0,VALID,85.1237,VALID,0,VALID,24.0525,VALID,151,VALID,0.00195313,
2012-09-13, 01:11:04,VALID,1000.66,VALID,0,VALID,85.6501,VALID,0,VALID,24.0153,VALID,151,VALID,0.365234,
2012-09-13, 01:12:04,VALID,1000.64,VALID,0,VALID,86.2376,VALID,0,VALID,23.9372,VALID,111,VALID,0.7125,
2012-09-13, 01:13:04,VALID,1000.61,VALID,0,VALID,87.1303,VALID,0,VALID,23.7793,VALID,9,VALID,0.804688,
2012-09-13, 01:14:04,VALID,1000.6,VALID,0,VALID,87.8093,VALID,0,VALID,23.6835,VALID,9,VALID,0.725391,
2012-09-13, 01:15:04,VALID,1000.61,VALID,0,VALID,88.1679,VALID,0,VALID,23.5664,VALID,9,VALID,0.733984,
2012-09-13, 01:16:04,VALID,1000.57,VALID,0,VALID,88.9385,VALID,0,VALID,23.4671,VALID,9,VALID,0.822656,
2012-09-13, 01:17:04,VALID,1000.59,VALID,0,VALID,89.1368,VALID,0,VALID,23.3908,VALID,9,VALID,0.711328,
2012-09-13, 01:18:04,VALID,1000.57,VALID,0,VALID,89.6251,VALID,0,VALID,23.3323,VALID,14,VALID,0.976953,
2012-09-13, 01:19:04,VALID,1000.53,VALID,0,VALID,89.6557,VALID,0,VALID,23.2134,VALID,28,VALID,1.23672,
2012-09-13, 01:20:04,VALID,1000.56,VALID,0,VALID,89.8769,VALID,0,VALID,23.1371,VALID,28,VALID,0.951563,
2012-09-13, 01:21:04,VALID,1000.53,VALID,0,VALID,90.1211,VALID,0,VALID,23.0396,VALID,28,VALID,1.2293,
2012-09-13, 01:22:04,VALID,1000.55,VALID,0,VALID,90.8154,VALID,0,VALID,22.9385,VALID,28,VALID,1.15742,
2012-09-13, 01:23:04,VALID,1000.55,VALID,0,VALID,91.2274,VALID,0,VALID,22.9403,VALID,28,VALID,1.00742,
2012-09-13, 01:24:04,VALID,1000.53,VALID,0,VALID,91.2197,VALID,0,VALID,22.9013,VALID,6,VALID,1.16055,
2012-09-13, 01:25:04,VALID,1000.53,VALID,0,VALID,91.2274,VALID,0,VALID,22.8623,VALID,5,VALID,1.31875,
2012-09-13, 01:26:04,VALID,1000.53,VALID,0,VALID,91.3418,VALID,0,VALID,22.8427,VALID,6,VALID,1.12891,
2012-09-13, 01:27:04,VALID,1000.54,VALID,0,VALID,91.7691,VALID,0,VALID,22.8623,VALID,350,VALID,0.811328,
2012-09-13, 01:28:04,VALID,1000.54,VALID,0,VALID,91.8835,VALID,0,VALID,22.8623,VALID,347,VALID,0.117969,
2012-09-13, 01:29:04,VALID,1000.51,VALID,0,VALID,91.9064,VALID,0,VALID,22.8623,VALID,347,VALID,0.383984,
2012-09-13, 01:30:04,VALID,1000.5,VALID,0,VALID,92.0743,VALID,0,VALID,22.8818,VALID,347,VALID,0.721875,
2012-09-13, 01:31:04,VALID,1000.51,VALID,0,VALID,92.1277,VALID,0,VALID,22.8605,VALID,347,VALID,0.840625,
2012-09-13, 01:32:04,VALID,1000.49,VALID,0,VALID,92.265,VALID,0,VALID,22.9403,VALID,348,VALID,1.09531,
2012-09-13, 01:33:04,VALID,1000.52,VALID,0,VALID,92.0819,VALID,0,VALID,22.9988,VALID,348,VALID,0.808594,
2012-09-13, 01:34:04,VALID,1000.54,VALID,0,VALID,91.914,VALID,0,VALID,23.0183,VALID,348,VALID,0.550781,
2012-09-13, 01:35:04,VALID,1000.54,VALID,0,VALID,91.7309,VALID,0,VALID,23.0361,VALID,348,VALID,0.560547,
2012-09-13, 01:36:04,VALID,1000.53,VALID,0,VALID,91.5173,VALID,0,VALID,23.0573,VALID,348,VALID,0.350781,
2012-09-13, 01:37:04,VALID,1000.53,VALID,0,VALID,91.5173,VALID,0,VALID,23.0556,VALID,348,VALID,0.486328,
2012-09-13, 01:38:04,VALID,1000.54,VALID,0,VALID,91.3571,VALID,0,VALID,23.0964,VALID,348,VALID,0.367578,
2012-09-13, 01:39:04,VALID,1000.49,VALID,0,VALID,91.1663,VALID,0,VALID,23.0769,VALID,348,VALID,0.290234,
2012-09-13, 01:40:04,VALID,1000.47,VALID,0,VALID,91.1129,VALID,0,VALID,23.0573,VALID,348,VALID,0.64375,
2012-09-13, 01:41:04,VALID,1000.47,VALID,0,VALID,91.0443,VALID,0,VALID,22.9988,VALID,348,VALID,0.218359,
2012-09-13, 01:42:04,VALID,1000.47,VALID,0,VALID,91.3113,VALID,0,VALID,22.9793,VALID,348,VALID,0.288672,
2012-09-13, 01:43:04,VALID,1000.45,VALID,0,VALID,91.6317,VALID,0,VALID,22.9776,VALID,348,VALID,0,
2012-09-13, 01:44:04,VALID,1000.45,VALID,0,VALID,91.7996,VALID,0,VALID,23.0183,VALID,348,VALID,0.18125,
2012-09-13, 01:45:04,VALID,1000.45,VALID,0,VALID,91.7614,VALID,0,VALID,23.0183,VALID,348,VALID,0.605859,
2012-09-13, 01:46:04,VALID,1000.46,VALID,0,VALID,91.3571,VALID,0,VALID,23.0166,VALID,21,VALID,0.733984,
2012-09-13, 01:47:04,VALID,1000.42,VALID,0,VALID,90.9603,VALID,0,VALID,23.0166,VALID,36,VALID,0.749609,
2012-09-13, 01:48:04,VALID,1000.41,VALID,0,VALID,90.5407,VALID,0.104696,VALID,22.9988,VALID,46,VALID,1.08555,
2012-09-13, 01:49:04,VALID,1000.4,VALID,0,VALID,90.4186,VALID,0,VALID,22.9403,VALID,46,VALID,0.987109,
2012-09-13, 01:50:04,VALID,1000.4,VALID,0,VALID,90.6017,VALID,0,VALID,22.841,VALID,46,VALID,0.794922,
2012-09-13, 01:51:04,VALID,1000.41,VALID,0,VALID,90.7849,VALID,0.104696,VALID,22.8037,VALID,46,VALID,0.851563,
2012-09-13, 01:52:04,VALID,1000.43,VALID,0,VALID,91.0977,VALID,0,VALID,22.7257,VALID,46,VALID,1.01719,
2012-09-13, 01:53:04,VALID,1000.4,VALID,0,VALID,91.296,VALID,0,VALID,22.7079,VALID,45,VALID,0.785547,
2012-09-13, 01:54:04,VALID,1000.42,VALID,0,VALID,91.4791,VALID,0,VALID,22.6477,VALID,24,VALID,1.04219,
2012-09-13, 01:55:04,VALID,1000.43,VALID,0,VALID,91.6928,VALID,0,VALID,22.6104,VALID,20,VALID,1.1043,
2012-09-13, 01:56:04,VALID,1000.43,VALID,0,VALID,92.1048,VALID,0,VALID,22.5696,VALID,12,VALID,0.970312,
2012-09-13, 01:57:04,VALID,1000.42,VALID,0,VALID,92.5015,VALID,0,VALID,22.5714,VALID,12,VALID,0.651953,
2012-09-13, 01:58:04,VALID,1000.4,VALID,0,VALID,92.7914,VALID,0,VALID,22.5696,VALID,12,VALID,0.661719,
2012-09-13, 01:59:04,VALID,1000.44,VALID,0,VALID,92.9974,VALID,0,VALID,22.6087,VALID,12,VALID,0.382422,
2012-09-13, 02:00:04,VALID,1000.42,VALID,0,VALID,93.0432,VALID,0,VALID,22.6282,VALID,12,VALID,0.370703,
2012-09-13, 02:01:04,VALID,1000.42,VALID,0,VALID,93.1043,VALID,0,VALID,22.6494,VALID,12,VALID,0.200781,
2012-09-13, 02:02:04,VALID,1000.45,VALID,0,VALID,93.1577,VALID,0,VALID,22.6689,VALID,12,VALID,0.704297,
2012-09-13, 02:03:04,VALID,1000.43,VALID,0,VALID,93.0127,VALID,0,VALID,22.6494,VALID,29,VALID,0.776172,
2012-09-13, 02:04:04,VALID,1000.42,VALID,0,VALID,92.9593,VALID,0,VALID,22.6104,VALID,29,VALID,0.984375,
2012-09-13, 02:05:04,VALID,1000.43,VALID,0,VALID,93.1653,VALID,0,VALID,22.6104,VALID,29,VALID,0.825391,
2012-09-13, 02:06:04,VALID,1000.39,VALID,0,VALID,93.2111,VALID,0,VALID,22.6104,VALID,29,VALID,0.484766,
2012-09-13, 02:07:04,VALID,1000.39,VALID,0,VALID,93.2568,VALID,0,VALID,22.5892,VALID,29,VALID,0.434766,
2012-09-13, 02:08:04,VALID,1000.37,VALID,0,VALID,93.2874,VALID,0,VALID,22.5892,VALID,29,VALID,0.595312,
2012-09-13, 02:09:04,VALID,1000.35,VALID,0,VALID,93.1348,VALID,0,VALID,22.5909,VALID,29,VALID,0.652734,
2012-09-13, 02:10:04,VALID,1000.34,VALID,0,VALID,93.0661,VALID,0,VALID,22.5501,VALID,29,VALID,1.05156,
2012-09-13, 02:11:04,VALID,1000.34,VALID,0,VALID,92.9822,VALID,0,VALID,22.5519,VALID,29,VALID,1.04766,
2012-09-13, 02:12:04,VALID,1000.35,VALID,0,VALID,92.8601,VALID,0,VALID,22.5323,VALID,29,VALID,1.20938,
2012-09-13, 02:13:04,VALID,1000.35,VALID,0,VALID,92.7914,VALID,0,VALID,22.4526,VALID,29,VALID,0.998828,
2012-09-13, 02:14:04,VALID,1000.36,VALID,0,VALID,92.8296,VALID,0,VALID,22.4331,VALID,29,VALID,0.747266,
2012-09-13, 02:15:04,VALID,1000.32,VALID,0,VALID,92.8296,VALID,0,VALID,22.4348,VALID,29,VALID,1.00391,
2012-09-13, 02:16:04,VALID,1000.3,VALID,0,VALID,92.9135,VALID,0,VALID,22.4136,VALID,29,VALID,1.15508,
2012-09-13, 02:17:04,VALID,1000.28,VALID,0,VALID,92.9669,VALID,0,VALID,22.3941,VALID,29,VALID,1.13242,
2012-09-13, 02:18:04,VALID,1000.26,VALID,0,VALID,93.0127,VALID,0,VALID,22.3746,VALID,29,VALID,1.02695,
2012-09-13, 02:19:04,VALID,1000.25,VALID,0,VALID,92.9898,VALID,0,VALID,22.3763,VALID,29,VALID,1.14727,
2012-09-13, 02:20:04,VALID,1000.26,VALID,0,VALID,93.0127,VALID,0,VALID,22.3356,VALID,29,VALID,1.23477,
2012-09-13, 02:21:04,VALID,1000.25,VALID,0,VALID,93.1195,VALID,0,VALID,22.3161,VALID,45,VALID,1.23242,
2012-09-13, 02:22:04,VALID,1000.24,VALID,0,VALID,93.15,VALID,0,VALID,22.2949,VALID,45,VALID,0.995313,
2012-09-13, 02:23:04,VALID,1000.21,VALID,0,VALID,93.0966,VALID,0,VALID,22.2949,VALID,45,VALID,0.797656,
2012-09-13, 02:24:04,VALID,1000.2,VALID,0,VALID,93.0814,VALID,0,VALID,22.2966,VALID,45,VALID,0.868359,
2012-09-13, 02:25:04,VALID,1000.23,VALID,0,VALID,93.0737,VALID,0,VALID,22.2754,VALID,12,VALID,0.722656,
2012-09-13, 02:26:04,VALID,1000.25,VALID,0,VALID,93.1195,VALID,0.104696,VALID,22.2771,VALID,12,VALID,1.08633,
2012-09-13, 02:27:04,VALID,1000.27,VALID,0,VALID,93.1805,VALID,0,VALID,22.2559,VALID,12,VALID,0.999219,
2012-09-13, 02:28:04,VALID,1000.3,VALID,0,VALID,93.3331,VALID,0,VALID,22.2754,VALID,12,VALID,0.541016,
2012-09-13, 02:29:04,VALID,1000.31,VALID,0,VALID,93.2874,VALID,0.104696,VALID,22.2949,VALID,356,VALID,0.733594,
2012-09-13, 02:30:04,VALID,1000.3,VALID,0,VALID,93.1348,VALID,0,VALID,22.3161,VALID,356,VALID,0.926172,
2012-09-13, 02:31:04,VALID,1000.33,VALID,0,VALID,92.9593,VALID,0,VALID,22.3161,VALID,1,VALID,0.991797,
2012-09-13, 02:32:04,VALID,1000.32,VALID,0,VALID,92.8372,VALID,0,VALID,22.3356,VALID,7,VALID,0.876562,
2012-09-13, 02:33:04,VALID,1000.35,VALID,0,VALID,92.7685,VALID,0,VALID,22.3339,VALID,7,VALID,0.807813,
2012-09-13, 02:34:04,VALID,1000.35,VALID,0,VALID,92.5854,VALID,0,VALID,22.3534,VALID,7,VALID,0.673047,
2012-09-13, 02:35:04,VALID,1000.35,VALID,0,VALID,92.4405,VALID,0,VALID,22.3551,VALID,7,VALID,0.89375,
2012-09-13, 02:36:04,VALID,1000.35,VALID,0,VALID,92.3718,VALID,0,VALID,22.3551,VALID,14,VALID,0.90625,
2012-09-13, 02:37:04,VALID,1000.32,VALID,0,VALID,92.3718,VALID,0,VALID,22.3356,VALID,27,VALID,0.931641,
2012-09-13, 02:38:04,VALID,1000.31,VALID,0,VALID,92.3794,VALID,0,VALID,22.3568,VALID,30,VALID,0.782422,
2012-09-13, 02:39:04,VALID,1000.31,VALID,0,VALID,92.4786,VALID,0,VALID,22.3568,VALID,30,VALID,0.858984,
2012-09-13, 02:40:04,VALID,1000.28,VALID,0,VALID,92.4176,VALID,0,VALID,22.3568,VALID,30,VALID,0.924219,
2012-09-13, 02:41:04,VALID,1000.29,VALID,0,VALID,92.4176,VALID,0,VALID,22.3568,VALID,30,VALID,0.613281,
2012-09-13, 02:42:04,VALID,1000.25,VALID,0,VALID,92.3947,VALID,0,VALID,22.3161,VALID,30,VALID,0.556641,
2012-09-13, 02:43:04,VALID,1000.26,VALID,0,VALID,92.4023,VALID,0,VALID,22.2983,VALID,28,VALID,0.722656,
2012-09-13, 02:44:04,VALID,1000.25,VALID,0,VALID,92.5778,VALID,0,VALID,22.2771,VALID,17,VALID,0.798047,
2012-09-13, 02:45:04,VALID,1000.26,VALID,0,VALID,92.616,VALID,0,VALID,22.2983,VALID,17,VALID,0.736328,
2012-09-13, 02:46:04,VALID,1000.27,VALID,0,VALID,92.6312,VALID,0,VALID,22.3178,VALID,17,VALID,0.466797,
2012-09-13, 02:47:04,VALID,1000.26,VALID,0,VALID,92.5397,VALID,0,VALID,22.3161,VALID,17,VALID,0.478516,
2012-09-13, 02:48:04,VALID,1000.31,VALID,0,VALID,92.4557,VALID,0,VALID,22.3178,VALID,17,VALID,0.283594,
2012-09-13, 02:49:04,VALID,1000.28,VALID,0,VALID,92.4557,VALID,0,VALID,22.3373,VALID,17,VALID,0.43125,
2012-09-13, 02:50:04,VALID,1000.3,VALID,0,VALID,92.3642,VALID,0,VALID,22.3161,VALID,17,VALID,0.780859,
2012-09-13, 02:51:04,VALID,1000.27,VALID,0,VALID,92.3947,VALID,0,VALID,22.3568,VALID,17,VALID,1.05117,
2012-09-13, 02:52:04,VALID,1000.3,VALID,0,VALID,92.3108,VALID,0,VALID,22.3763,VALID,17,VALID,0.675,
2012-09-13, 02:53:04,VALID,1000.32,VALID,0,VALID,92.1658,VALID,0,VALID,22.3551,VALID,17,VALID,0.817578,
2012-09-13, 02:54:04,VALID,1000.3,VALID,0,VALID,92.0743,VALID,0,VALID,22.3551,VALID,17,VALID,0.660547,
2012-09-13, 02:55:04,VALID,1000.33,VALID,0,VALID,92.1353,VALID,0,VALID,22.3551,VALID,17,VALID,0.444141,
2012-09-13, 02:56:04,VALID,1000.34,VALID,0,VALID,92.204,VALID,0,VALID,22.3551,VALID,17,VALID,0.338672,
2012-09-13, 02:57:04,VALID,1000.35,VALID,0,VALID,92.2192,VALID,0,VALID,22.3958,VALID,17,VALID,0.502344,
2012-09-13, 02:58:04,VALID,1000.36,VALID,0,VALID,92.2345,VALID,0,VALID,22.3568,VALID,17,VALID,0.589453,
2012-09-13, 02:59:04,VALID,1000.37,VALID,0,VALID,92.326,VALID,0,VALID,22.3568,VALID,17,VALID,0.594531,
2012-09-13, 03:00:04,VALID,1000.36,VALID,0,VALID,92.2879,VALID,0,VALID,22.3373,VALID,17,VALID,0.692578,
2012-09-13, 03:01:04,VALID,1000.39,VALID,0,VALID,92.3337,VALID,0,VALID,22.3161,VALID,17,VALID,0.768359,
2012-09-13, 03:02:04,VALID,1000.4,VALID,0,VALID,92.4405,VALID,0,VALID,22.3178,VALID,17,VALID,0.720703,
2012-09-13, 03:03:04,VALID,1000.39,VALID,0,VALID,92.5091,VALID,0,VALID,22.3373,VALID,17,VALID,0.698828,
2012-09-13, 03:04:04,VALID,1000.37,VALID,0,VALID,92.5397,VALID,0,VALID,22.3373,VALID,17,VALID,0.673828,
2012-09-13, 03:05:04,VALID,1000.36,VALID,0,VALID,92.532,VALID,0,VALID,22.3373,VALID,17,VALID,0.745313,
2012-09-13, 03:06:04,VALID,1000.34,VALID,0,VALID,92.5397,VALID,0,VALID,22.3568,VALID,17,VALID,0.820703,
2012-09-13, 03:07:04,VALID,1000.37,VALID,0,VALID,92.4939,VALID,0,VALID,22.3161,VALID,17,VALID,0.871875,
2012-09-13, 03:08:04,VALID,1000.32,VALID,0,VALID,92.4939,VALID,0.104696,VALID,22.2754,VALID,17,VALID,0.753516,
2012-09-13, 03:09:04,VALID,1000.32,VALID,0,VALID,92.4939,VALID,0.104696,VALID,22.2559,VALID,17,VALID,0.849219,
2012-09-13, 03:10:04,VALID,1000.33,VALID,0,VALID,92.6007,VALID,0.104696,VALID,22.2576,VALID,17,VALID,0.814062,
2012-09-13, 03:11:04,VALID,1000.3,VALID,0,VALID,92.7075,VALID,0.104696,VALID,22.2169,VALID,17,VALID,0.728906,
2012-09-13, 03:12:04,VALID,1000.31,VALID,0,VALID,92.7685,VALID,0,VALID,22.2186,VALID,17,VALID,0.641016,
2012-09-13, 03:13:04,VALID,1000.27,VALID,0,VALID,92.7762,VALID,0.104696,VALID,22.1779,VALID,17,VALID,0.338672,
2012-09-13, 03:14:04,VALID,1000.32,VALID,0,VALID,92.7685,VALID,0,VALID,22.1795,VALID,17,VALID,0.466797,
2012-09-13, 03:15:04,VALID,1000.32,VALID,0,VALID,92.8754,VALID,0.104696,VALID,22.1194,VALID,17,VALID,0.534766,
2012-09-13, 03:16:04,VALID,1000.31,VALID,0,VALID,93.2034,VALID,0.104696,VALID,22.1194,VALID,17,VALID,0.712109,
2012-09-13, 03:17:04,VALID,1000.3,VALID,0,VALID,93.5849,VALID,0,VALID,22.1584,VALID,17,VALID,0.635938,
2012-09-13, 03:18:04,VALID,1000.3,VALID,0,VALID,93.7146,VALID,0,VALID,22.199,VALID,30,VALID,0.890625,
2012-09-13, 03:19:04,VALID,1000.33,VALID,0,VALID,93.7375,VALID,0,VALID,22.1795,VALID,30,VALID,0.801953,
2012-09-13, 03:20:04,VALID,1000.34,VALID,0,VALID,93.7146,VALID,0.104696,VALID,22.1194,VALID,30,VALID,0.471484,
2012-09-13, 03:21:04,VALID,1000.33,VALID,0,VALID,93.646,VALID,0,VALID,22.0803,VALID,30,VALID,0.00195313,
2012-09-13, 03:22:04,VALID,1000.31,VALID,0,VALID,93.6231,VALID,0,VALID,22.0625,VALID,30,VALID,0,
2012-09-13, 03:23:04,VALID,1000.3,VALID,0,VALID,93.7451,VALID,0,VALID,22.043,VALID,30,VALID,0,
2012-09-13, 03:24:04,VALID,1000.28,VALID,0,VALID,93.8748,VALID,0,VALID,22.043,VALID,30,VALID,0.411719,
2012-09-13, 03:25:04,VALID,1000.27,VALID,0,VALID,93.9511,VALID,0,VALID,22.0642,VALID,30,VALID,0.660156,
2012-09-13, 03:26:04,VALID,1000.26,VALID,0,VALID,93.9511,VALID,0,VALID,22.0642,VALID,30,VALID,0.623828,
2012-09-13, 03:27:04,VALID,1000.3,VALID,0,VALID,93.8977,VALID,0,VALID,22.0447,VALID,30,VALID,0.511328,
2012-09-13, 03:28:04,VALID,1000.25,VALID,0,VALID,93.8443,VALID,0,VALID,22.0057,VALID,30,VALID,0.216016,
2012-09-13, 03:29:04,VALID,1000.28,VALID,0,VALID,93.8596,VALID,0,VALID,21.965,VALID,30,VALID,0.150391,
2012-09-13, 03:30:04,VALID,1000.28,VALID,0,VALID,93.8672,VALID,0,VALID,21.9667,VALID,30,VALID,0,
2012-09-13, 03:31:04,VALID,1000.27,VALID,0,VALID,93.974,VALID,0,VALID,21.9455,VALID,30,VALID,0.342187,
2012-09-13, 03:32:04,VALID,1000.25,VALID,0,VALID,94.0961,VALID,0,VALID,21.9472,VALID,30,VALID,0.392188,
2012-09-13, 03:33:04,VALID,1000.3,VALID,0,VALID,94.1724,VALID,0,VALID,21.9667,VALID,30,VALID,0.302734,
2012-09-13, 03:34:04,VALID,1000.3,VALID,0,VALID,94.2258,VALID,0,VALID,21.926,VALID,30,VALID,0.285937,
2012-09-13, 03:35:04,VALID,1000.35,VALID,0,VALID,94.2716,VALID,0,VALID,21.9472,VALID,30,VALID,0.139062,
2012-09-13, 03:36:04,VALID,1000.3,VALID,0,VALID,94.2945,VALID,0,VALID,21.9065,VALID,30,VALID,0.0105469,
2012-09-13, 03:37:04,VALID,1000.29,VALID,0,VALID,94.3174,VALID,0,VALID,21.9082,VALID,30,VALID,0.248828,
2012-09-13, 03:38:04,VALID,1000.28,VALID,0,VALID,94.3326,VALID,0,VALID,21.8887,VALID,30,VALID,0.05,
2012-09-13, 03:39:04,VALID,1000.26,VALID,0,VALID,94.3174,VALID,0,VALID,21.8887,VALID,30,VALID,0.278125,
2012-09-13, 03:40:04,VALID,1000.28,VALID,0,VALID,94.3021,VALID,0,VALID,21.8285,VALID,30,VALID,0.598437,
2012-09-13, 03:41:04,VALID,1000.28,VALID,0,VALID,94.3555,VALID,0,VALID,21.8301,VALID,30,VALID,0.662891,
2012-09-13, 03:42:04,VALID,1000.32,VALID,0,VALID,94.4242,VALID,0,VALID,21.8301,VALID,30,VALID,0.710156,
2012-09-13, 03:43:04,VALID,1000.32,VALID,0,VALID,94.5462,VALID,0,VALID,21.8301,VALID,45,VALID,0.887891,
2012-09-13, 03:44:04,VALID,1000.32,VALID,0,VALID,94.6683,VALID,0,VALID,21.848,VALID,54,VALID,0.934766,
2012-09-13, 03:45:04,VALID,1000.35,VALID,0,VALID,94.8362,VALID,0,VALID,21.9082,VALID,62,VALID,0.966406,